sat.trackr.live / text

‹ back to catalog

HJS-9B

NORAD 68832 · 2026-091B

PAYLOAD ACTIVE UNKNOWN

§ Identity

Operator
Country
PRC
Launch date
2026-04-24
Launch site
XICLF
Launch vehicle
Mass (kg)
RCS (m²)

External: N2YO · Heavens-Above · Gunter

§ Orbital elements

Epoch: 2026-09-20T04:59:55.422240Z

Period
94.79 min
Inclination
55.0045°
Eccentricity
0.0006859
Mean motion
15.19080800 rev/d
Perigee alt
503.9 km
Apogee alt
513.3 km
Semi-major
6,886.8 km
B*
3.4465e-4
RAAN
326.5382°
Arg perigee
280.2169°
Mean anomaly
79.8077°
Rev number
2,264

§ Raw data

HJS-9B1 68832U 26091B   26263.20828035  .00007006  00000+0  34465-3 0  99992 68832  55.0045 326.5382 0006859 280.2169  79.8077 15.19080800 22647

JSON: /api/v1/satellites/68832 · /tle

For live sub-satellite position, see the globe view (requires WebGL).

§ Visibility from observer

Set your observer location to see the next 7 days of passes ≥ 10°. The values pass through the URL so the page stays shareable.

No JS? Fill the form by hand. The geolocation button needs JavaScript.